KD9BEW Weather Reports


Display with metric or nautical units.
time (UTC)temp
F
wind
direction
speed
MPH
gust
MPH
rain 1hr
in
rain 24hr
in
rain mn
in
humidity
%
barometer
mb
20260901084604 64 0 0.0 1.0 0.00 0.00 0.00 88 1012.8
20260901083105 64 0 0.0 4.0 0.00 0.00 0.00 88 1012.9
20260901081606 64 232 0.0 3.0 0.00 0.00 0.00 88 1012.9
20260901080107 65 0 1.0 4.0 0.00 0.00 0.00 87 1012.9
20260901074604 65 219 0.0 3.0 0.00 0.00 0.00 87 1012.9
20260901073104 65 200 2.0 4.0 0.00 0.00 0.00 86 1012.8
20260901071605 65 156 1.0 5.0 0.00 0.00 0.00 86 1012.9
20260901070112 65 167 2.0 4.0 0.00 0.00 0.00 86 1012.8
20260901064600 64 146 2.0 4.0 0.00 0.00 0.00 89 1012.9
20260901063100 64 0 0.0 1.0 0.00 0.00 0.00 89 1013.0
20260901061610 64 0 0.0 1.0 0.00 0.00 0.00 90 1013.1
20260901060107 64 0 0.0 0.0 0.00 0.00 0.00 91 1013.1
20260901054608 63 0 0.0 2.0 0.00 0.00 0.00 90 1013.1
20260901053116 64 0 0.0 0.0 0.00 0.00 0.00 89 1013.1
20260901051610 65 0 0.0 0.0 0.00 0.00 0.00 88 1013.2
20260901050105 66 0 0.0 1.0 0.00 0.00 0.00 86 1013.2
20260901044621 68 0 0.0 1.0 0.00 0.00 0.00 86 1013.0
20260901043106 68 206 0.0 3.0 0.00 0.00 0.00 87 1012.8
20260901041602 67 210 0.0 2.0 0.00 0.00 0.00 88 1012.8
20260901040106 67 0 0.0 0.0 0.00 0.00 0.00 86 1012.7
20260901034600 67 0 0.0 1.0 0.00 0.00 0.00 86 1012.6
20260901033107 68 0 0.0 1.0 0.00 0.00 0.00 85 1012.5
20260901031605 68 0 0.0 2.0 0.00 0.00 0.00 84 1012.4
20260901030105 68 0 0.0 1.0 0.00 0.00 0.00 84 1012.5
20260901024610 68 194 0.0 2.0 0.00 0.00 0.00 84 1012.5
20260901023105 68 0 0.0 1.0 0.00 0.00 0.00 84 1012.2
20260901021604 68 0 0.0 1.0 0.00 0.00 0.00 84 1012.2
20260901020105 68 0 0.0 1.0 0.00 0.00 0.00 84 1012.3
20260901014603 69 0 0.0 1.0 0.00 0.00 0.00 83 1012.2
20260901013104 70 0 0.0 0.0 0.00 0.00 0.00 81 1012.1
20260901011608 71 0 0.0 1.0 0.00 0.00 0.00 80 1012.0
20260901004606 74 36 0.0 1.0 0.00 0.00 0.00 74 1011.9
20260901003107 76 0 0.0 0.0 0.00 0.00 0.00 70 1011.7
20260901001602 78 0 0.0 0.0 0.00 0.00 0.00 65 1011.6
20260901000103 81 0 0.0 0.0 0.00 0.00 0.00 61 1011.3
20260831234604 82 0 0.0 0.0 0.00 0.00 0.00 54 1011.3
20260831233109 84 0 0.0 0.0 0.00 0.00 0.00 52 1011.5
20260831231602 85 0 0.0 2.0 0.00 0.00 0.00 50 1011.5
20260831224601 87 15 1.0 3.0 0.00 0.00 0.00 47 1011.4
20260831223106 87 263 1.0 4.0 0.00 0.00 0.00 44 1011.4
20260831221606 88 280 1.0 4.0 0.00 0.00 0.00 55 1011.3
20260831220109 88 140 2.0 7.0 0.00 0.00 0.00 59 1011.2
20260831214623 89 263 1.0 4.0 0.00 0.00 0.00 56 1011.2
20260831213101 89 141 1.0 6.0 0.00 0.00 0.00 54 1011.0
20260831211602 88 269 2.0 9.0 0.00 0.00 0.00 57 1010.7
20260831210058 89 261 2.0 6.0 0.00 0.00 0.00 59 1010.5
20260831204604 87 268 1.0 5.0 0.00 0.00 0.00 62 1010.5
20260831203103 86 180 1.0 7.0 0.00 0.00 0.00 67 1010.3
20260831201602 87 309 1.0 6.0 0.00 0.00 0.00 67 1010.3
20260831200105 87 273 2.0 10.0 0.00 0.00 0.00 65 1010.3
20260831194604 86 152 1.0 8.0 0.00 0.00 0.00 69 1010.6
20260831193102 85 252 4.0 11.0 0.00 0.00 0.00 71 1010.6
20260831191601 85 257 1.0 7.0 0.00 0.00 0.00 73 1010.7
20260831190114 84 203 2.0 8.0 0.00 0.00 0.00 73 1010.7
20260831184605 82 209 1.0 7.0 0.00 0.00 0.00 77 1010.7
20260831183105 82 153 2.0 7.0 0.00 0.00 0.00 75 1010.9
20260831181602 82 141 2.0 5.0 0.00 0.00 0.00 76 1010.8
20260831180104 80 210 2.0 6.0 0.00 0.00 0.00 78 1010.9
20260831174610 80 0 0.0 5.0 0.00 0.00 0.00 80 1010.9
20260831173103 79 163 1.0 4.0 0.00 0.00 0.00 81 1010.9
20260831171602 78 148 1.0 5.0 0.00 0.00 0.00 81 1011.0
20260831170059 78 0 1.0 6.0 0.00 0.00 0.00 82 1010.9
20260831164609 77 0 0.0 3.0 0.00 0.00 0.00 84 1010.8
20260831163104 76 202 0.0 4.0 0.00 0.00 0.00 85 1010.9
20260831161602 76 0 0.0 5.0 0.00 0.00 0.00 85 1010.7
20260831154627 76 0 0.0 6.0 0.00 0.00 0.00 84 1010.7
20260831153103 76 170 0.0 4.0 0.00 0.00 0.00 84 1010.3
20260831151607 76 0 2.0 5.0 0.00 0.00 0.00 84 1010.2
20260831150107 76 167 1.0 6.0 0.00 0.00 0.00 84 1010.0
20260831144604 76 131 0.0 5.0 0.00 0.00 0.00 84 1009.6
20260831143116 75 166 0.0 5.0 0.00 0.00 0.00 85 1009.7
20260831141608 74 0 1.0 9.0 0.00 0.00 0.00 86 1009.7
20260831134605 73 239 0.0 3.0 0.00 0.00 0.00 87 1009.5
20260831133103 73 0 1.0 4.0 0.00 0.00 0.00 87 1009.5
20260831131602 73 0 1.0 4.0 0.00 0.00 0.00 87 1009.5
20260831130113 72 188 1.0 4.0 0.00 0.00 0.00 88 1009.3
20260831124604 71 0 1.0 4.0 0.00 0.00 0.00 89 1009.3
20260831123105 71 146 0.0 1.0 0.00 0.00 0.00 89 1009.1
20260831121604 70 0 0.0 2.0 0.00 0.00 0.00 89 1009.5
20260831120111 71 0 0.0 0.0 0.00 0.00 0.00 89 1009.4
20260831114608 71 0 0.0 1.0 0.00 0.00 0.00 89 1009.4
20260831113132 70 0 0.0 1.0 0.00 0.00 0.00 89 1009.2
20260831111558 70 0 0.0 2.0 0.00 0.00 0.00 90 1009.2
20260831110059 70 0 0.0 2.0 0.00 0.00 0.00 90 1009.3
20260831104605 70 0 0.0 4.0 0.00 0.00 0.00 90 1009.1
20260831103118 70 0 0.0 2.0 0.00 0.00 0.00 90 1009.1
20260831101604 70 0 0.0 4.0 0.00 0.00 0.00 90 1009.1
20260831100100 70 0 1.0 4.0 0.00 0.00 0.00 90 1009.4
20260831094612 70 0 0.0 3.0 0.00 0.00 0.00 91 1009.3
20260831093112 69 0 0.0 4.0 0.00 0.00 0.00 92 1009.2
20260831091606 69 0 0.0 5.0 0.00 0.00 0.00 93 1009.4
20260831090108 68 0 0.0 4.0 0.00 0.00 0.00 93 1009.1